Home   Weather   Breda   Past weeks

Flag for Netherlands Past Weather in Breda, Netherlands — Yesterday and Last 2 Weeks

30 °F

Ice fog.

Feels Like: 30 °F
Forecast: 43 / 49 °F
Wind: 2 mph from North

Location: Gilze-Rijen

Current Time: Oct 23, 2016 at 8:16:58 AM

Latest Report: Oct 23, 2016 at 7:25 AM

Visibility: 2 mi

Pressure: 29.92 "Hg

Humidity: 100%

Dew Point: 30 °F

Location of BredaLocation

Past Weather in Breda — Graph


Breda Temperature Yesterday

Maximum temperature yesterday: 50 °F (at 1:55 PM)
Minimum temperature yesterday: 32 °F (at 11:55 PM)
Average temperature yesterday: 43 °F

High & Low Weather Summary for the Past Weeks

High68 °F (Oct 16, 2:25 PM)100% (Oct 8, 11:55 PM)30.30 "Hg (Oct 8, 11:55 PM)
Low28 °F (Oct 23, 5:25 AM)51% (Oct 8, 2:25 PM)29.65 "Hg (Oct 14, 11:55 PM)
Average49 °F85%30.04 "Hg
* Reported Oct 8 7:25 AM — Oct 23 7:04 AM, Breda, Weather by CustomWeather, © 2016

Note: Actual official high and low records may vary slightly from our data, if they occured in-between our weather recording intervals... More about our weather records


Breda Weather History for the Previous 24 Hours

Scroll right to see more
Time TempWeatherWind HumidityBarometerVisibility
7:04 AM
Sun, Oct 23
28 °FIce fog.2 mph100%29.92 "Hg2 mi
6:25 AM30 °FIce fog.2 mph93%29.92 "Hg2 mi
6:01 AM30 °FIce fog.1 mph100%29.92 "Hg3 mi
5:55 AM30 °FIce fog.1 mph100%29.92 "Hg3 mi
5:25 AM28 °FIce fog.1 mph100%29.92 "Hg1 mi
4:55 AM30 °FIce fog.No wind100%29.92 "Hg0 mi
4:25 AM30 °FIce fog.1 mph100%29.95 "Hg0 mi
4:04 AM32 °FIce fog.2 mph100%29.95 "Hg0 mi
3:25 AM30 °FIce fog.2 mph100%29.95 "Hg2 mi
2:55 AM32 °FIce fog.No wind100%29.95 "Hg3 mi
2:25 AM30 °FIce fog.No wind100%29.95 "Hg2 mi
1:55 AM32 °FIce fog.No wind100%29.98 "Hg2 mi
1:25 AM32 °FIce fog.1 mph93%29.98 "Hg2 mi
12:55 AM32 °FIce fog.1 mph100%29.98 "Hg1 mi
12:25 AM32 °FIce fog.1 mph100%29.98 "Hg2 mi
12:03 AM32 °FIce fog.No wind100%29.95 "Hg1 mi
11:55 PM
Sat, Oct 22
32 °FIce fog.No wind100%29.95 "Hg1 mi
11:25 PM34 °FFog.1 mph100%29.98 "Hg3 mi
11:04 PM34 °FFog.1 mph100%29.98 "Hg1 mi
10:55 PM34 °FFog.1 mph100%29.98 "Hg1 mi
10:25 PM36 °FFog.1 mph93%29.98 "Hg3 mi
10:01 PM36 °FFog.No wind93%29.98 "Hg2 mi
9:55 PM36 °FFog.1 mph100%29.98 "Hg4 mi
9:25 PM36 °FFog.1 mph100%29.98 "Hg2 mi
9:04 PM36 °FFog.No wind100%29.98 "Hg3 mi
8:55 PM37 °FFog.No wind93%29.98 "Hg2 mi
8:25 PM37 °FFog.1 mph100%29.98 "Hg4 mi
7:58 PM37 °FFog.1 mph100%29.98 "Hg3 mi
7:55 PM37 °FFog.1 mph100%29.98 "Hg3 mi
7:25 PM39 °FFog.1 mph100%29.98 "Hg3 mi
7:03 PM41 °FFog.No wind87%29.98 "Hg4 mi
6:25 PM45 °FQuite cool.1 mph81%29.98 "HgN/A
5:55 PM46 °FCool.6 mph76%29.98 "HgN/A
5:25 PM48 °FCool.8 mph71%29.95 "HgN/A
4:55 PM48 °FCool.7 mph71%29.98 "HgN/A
4:25 PM48 °FPartly sunny.8 mph71%29.98 "HgN/A
3:55 PM50 °FPartly sunny.8 mph67%29.95 "HgN/A
3:25 PM50 °FMostly cloudy.8 mph71%29.95 "HgN/A
2:55 PM50 °FOvercast.9 mph71%29.95 "HgN/A
2:25 PM50 °FScattered clouds.6 mph71%29.95 "HgN/A
1:55 PM50 °FOvercast.6 mph76%29.98 "HgN/A
1:25 PM48 °FBroken clouds.5 mph82%29.95 "HgN/A
12:55 PM48 °FOvercast.7 mph82%29.98 "HgN/A
12:25 PM48 °FOvercast.5 mph82%29.98 "HgN/A
11:55 AM48 °FOvercast.5 mph82%29.98 "HgN/A
11:25 AM48 °FOvercast.6 mph82%29.95 "HgN/A
10:55 AM48 °FOvercast.7 mph82%29.95 "HgN/A
10:25 AM48 °FOvercast.6 mph82%29.95 "HgN/A
9:55 AM46 °FOvercast.6 mph87%29.95 "HgN/A
9:25 AM46 °FOvercast.5 mph93%29.95 "HgN/A
8:55 AM46 °FFog.7 mph93%29.95 "Hg6 mi
8:25 AM45 °FPartly sunny.5 mph100%29.92 "HgN/A
Weather by CustomWeather, © 2016

See weather overviewHow to use our weather pages